Effective Sunday, March 17, 2024, the National Weather Service National Data Buoy Center will discontinue its Dial-A-Buoy Interactive Voice Response system. For more information, see Service Change Notice 24-06 (PDF).

Station PHBP1 - 8545240 - Philadelphia, PA Image indicating link to RSS feed of recent meteorological observations for station PHBP1


Conditions at PHBP1 as of
(12:18 pm EST)
1718 GMT on 03/01/2024:
     

Click on the graph icon in the table below to see a time series plot of the last five days of that observation.

5-day plot - Atmospheric Pressure Atmospheric Pressure (PRES):1035.7 mb
5-day plot - Air Temperature Air Temperature (ATMP): 8.0 °C
5-day plot - Water Temperature Water Temperature (WTMP): 6.0 °C
NOS Water Level Observation Network Water Level
Previous observations
TIME
(EST)
5-day plot - Wind Direction
WDIR
 
5-day plot - Wind Speed
WSPD
m/s
5-day plot - Wind Gust
GST
m/s
5-day plot - Wave Height
WVHT
m
5-day plot - Dominant Wave Period
DPD
sec
5-day plot - Average Wave Period
APD
sec
5-day plot - Mean Wave Direction
MWD
 
5-day plot - Atmospheric Pressure
PRES
mb
5-day plot - Pressure Tendency
PTDY
mb
5-day plot - Air Temperature
ATMP
°C
5-day plot - Water Temperature
WTMP
°C
5-day plot - Dew Point
DEWP
°C
5-day plot - Salinity
SAL
psu
5-day plot - Visibility
VIS
km
5-day plot - Tide (above MLLW)
TIDE
m
2024-03-01 12:12 pm-------1035.8- 8.2 6.0----
2024-03-01 12:06 pm-------1036.0- 8.4 6.0----
2024-03-01 12:00 pm-------1036.2 -1.3 8.2 6.0----
2024-03-01 11:54 am-------1036.3- 8.0 6.0----
2024-03-01 11:48 am-------1036.5- 7.8 6.0----
2024-03-01 11:42 am-------1036.6- 7.7 6.0----
2024-03-01 11:36 am-------1036.8- 7.9 6.0----
2024-03-01 11:30 am-------1037.0- 7.9 6.0----
2024-03-01 11:24 am-------1037.1- 7.7 6.0----
2024-03-01 11:18 am-------1037.2- 7.6 6.0----
2024-03-01 11:12 am-------1037.3- 7.4 6.0----
2024-03-01 11:06 am-------1037.5- 6.8 6.0----
2024-03-01 11:00 am-------1037.5 +0.3 6.3 5.9----
2024-03-01 10:54 am-------1037.5- 6.1 5.9----
2024-03-01 10:48 am-------1037.5- 5.9 5.9----
2024-03-01 10:42 am-------1037.6- 5.8 5.9----
2024-03-01 10:36 am-------1037.5- 5.6 5.9----
2024-03-01 10:30 am-------1037.5- 5.7 5.9----
2024-03-01 10:24 am-------1037.6- 5.7 5.9----
2024-03-01 10:18 am-------1037.6- 5.6 5.9----
2024-03-01 10:12 am-------1037.6- 5.5 5.9----
2024-03-01 10:06 am-------1037.6- 5.2 5.9----
2024-03-01 10:00 am-------1037.5 +0.9 5.1 6.0----
2024-03-01 09:54 am-------1037.6- 5.3 6.0----
2024-03-01 09:48 am-------1037.6- 5.2 6.1----
2024-03-01 09:42 am-------1037.6- 5.4 6.1----
2024-03-01 09:36 am-------1037.6- 5.0 5.9----
2024-03-01 09:30 am-------1037.4- 4.6 5.9----
2024-03-01 09:24 am-------1037.4- 4.7 5.9----
2024-03-01 09:18 am-------1037.5- 4.5 5.9----
2024-03-01 09:12 am-------1037.4- 4.4 5.9----
2024-03-01 09:06 am-------1037.5- 4.4 5.9----
2024-03-01 09:00 am-------1037.5 +1.7 4.2 6.0----
2024-03-01 08:54 am-------1037.5- 4.2 6.0----
2024-03-01 08:48 am-------1037.6- 4.0 6.0----
2024-03-01 08:42 am-------1037.5- 3.7 6.0----
2024-03-01 08:36 am-------1037.5- 3.6 6.0----
2024-03-01 08:30 am-------1037.5- 3.4 6.0----
2024-03-01 08:24 am-------1037.5- 3.2 6.0----
2024-03-01 08:18 am-------1037.5- 3.1 6.0----
2024-03-01 08:12 am-------1037.3- 3.0 6.0----
2024-03-01 08:06 am-------1037.3- 2.9 6.0----
2024-03-01 08:00 am-------1037.2 +2.5 2.8 6.0----
2024-03-01 07:54 am-------1037.1- 2.7 6.0----
2024-03-01 07:48 am-------1037.0- 2.7 5.9----
2024-03-01 07:42 am-------1037.0- 2.7 6.0----
2024-03-01 07:36 am-------1036.9- 2.8 6.0----
2024-03-01 07:30 am-------1036.9- 2.7 6.0----
2024-03-01 07:24 am-------1036.9- 2.9 6.0----
2024-03-01 07:18 am-------1036.8- 2.9 6.0----
2024-03-01 07:12 am-------1036.7- 2.9 6.0----
2024-03-01 07:06 am-------1036.7- 2.4 6.0----
2024-03-01 07:00 am-------1036.6 +3.0 1.6 6.0----
2024-03-01 06:54 am-------1036.5- 0.7 5.9----
2024-03-01 06:48 am-------1036.4- 0.1 5.9----
2024-03-01 06:42 am-------1036.4- 0.0 5.9----
2024-03-01 06:36 am-------1036.3- 0.0 5.9----
2024-03-01 06:30 am-------1036.2- 0.2 5.9----
2024-03-01 06:24 am-------1036.0- 0.2 5.9----
2024-03-01 06:18 am-------1036.0- 0.4 5.9----
2024-03-01 06:12 am-------1036.0- 0.5 5.9----
2024-03-01 06:06 am-------1035.9- 0.5 5.9----
2024-03-01 06:00 am-------1035.8 +3.1 0.6 5.9----
2024-03-01 05:54 am-------1035.7- 0.6 5.9----
2024-03-01 05:48 am-------1035.6- 0.5 5.9----
2024-03-01 05:42 am-------1035.5- 0.5 5.9----
2024-03-01 05:36 am-------1035.3- 0.5 5.9----
2024-03-01 05:30 am-------1035.3- 0.7 5.9----
2024-03-01 05:24 am-------1035.1- 0.6 5.9----
2024-03-01 05:18 am-------1035.0- 0.6 5.9----
2024-03-01 05:12 am-------1034.9- 0.6 5.9----
2024-03-01 05:06 am-------1034.8- 0.7 5.9----
2024-03-01 05:00 am-------1034.7 +2.1 0.8 5.9----
2024-03-01 04:54 am-------1034.6- 0.8 5.9----
2024-03-01 04:48 am-------1034.5- 0.6 5.9----
2024-03-01 04:42 am-------1034.3- 0.4 5.9----
2024-03-01 04:36 am-------1034.2- 0.4 5.9----
2024-03-01 04:30 am-------1034.1- 0.6 5.9----
2024-03-01 04:24 am-------1034.0- 0.7 5.9----
2024-03-01 04:18 am-------1033.9- 0.7 5.9----
2024-03-01 04:12 am-------1033.8- 0.7 5.9----
2024-03-01 04:06 am-------1033.7- 0.7 5.9----
2024-03-01 04:00 am-------1033.6 +1.2 0.7 5.9----
2024-03-01 03:54 am-------1033.5- 0.8 5.9----
2024-03-01 03:48 am-------1033.4- 1.0 6.0----
2024-03-01 03:42 am-------1033.4- 1.2 6.0----
2024-03-01 03:36 am-------1033.2- 1.1 6.0----
2024-03-01 03:30 am-------1033.1- 1.1 6.0----
2024-03-01 03:24 am-------1033.0- 1.0 6.0----
2024-03-01 03:18 am-------1032.9- 1.0 6.0----
2024-03-01 03:12 am-------1032.8- 0.9 6.0----
2024-03-01 03:06 am-------1032.7- 0.9 6.0----
2024-03-01 03:00 am-------1032.7 +1.0 0.9 6.0----
2024-03-01 02:54 am-------1032.7- 0.9 6.0----
2024-03-01 02:48 am-------1032.6- 1.0 6.0----
2024-03-01 02:42 am-------1032.6- 1.2 6.0----
2024-03-01 02:36 am-------1032.6- 1.5 6.0----
2024-03-01 02:30 am-------1032.6- 1.7 6.0----
2024-03-01 02:24 am-------1032.5- 1.9 6.0----
2024-03-01 02:18 am-------1032.5- 2.1 6.0----
2024-03-01 02:12 am-------1032.5- 2.1 5.9----
2024-03-01 02:06 am-------1032.6- 2.1 5.9----
2024-03-01 02:00 am-------1032.6 +1.0 2.2 5.9----
2024-03-01 01:54 am-------1032.6- 2.2 5.9----
2024-03-01 01:48 am-------1032.7- 2.3 5.9----
2024-03-01 01:42 am-------1032.6- 2.2 5.9----
2024-03-01 01:36 am-------1032.6- 2.2 5.9----
2024-03-01 01:30 am-------1032.6- 2.3 5.9----
2024-03-01 01:24 am-------1032.6- 2.3 5.9----
2024-03-01 01:18 am-------1032.5- 2.4 5.9----
2024-03-01 01:12 am-------1032.5- 2.4 5.9----
2024-03-01 01:06 am-------1032.5- 2.5 5.9----
2024-03-01 01:00 am-------1032.4 +1.1- 5.9----
2024-03-01 12:54 am-------1032.3-- 5.9----
2024-03-01 12:48 am-------1032.2- 2.5 5.9----
2024-03-01 12:42 am-------1032.1- 2.5 5.9----
2024-03-01 12:36 am-------1032.1- 2.5 5.9----
2024-03-01 12:30 am-------1032.1- 2.6 5.9----
2024-03-01 12:24 am-------1032.0- 2.6 5.9----
2024-03-01 12:18 am-------1031.9- 2.7 5.9----
2024-03-01 12:12 am-------1031.7- 2.6 5.9----
2024-03-01 12:06 am-------1031.7- 2.7 5.9----
2024-03-01 12:00 am-------1031.7 +1.1 2.7 5.9----
2024-02-29 11:54 pm-------1031.7- 2.7 5.9----
2024-02-29 11:48 pm-------1031.5- 2.8 5.9----
2024-02-29 11:42 pm-------1031.5- 2.8 5.9----
2024-02-29 11:36 pm-------1031.5- 2.8 5.9----
2024-02-29 11:30 pm-------1031.6- 2.9 5.9----
2024-02-29 11:24 pm-------1031.6- 2.9 5.9----
2024-02-29 11:18 pm-------1031.6- 2.9 5.9----
2024-02-29 11:12 pm-------1031.6- 3.0 5.9----
2024-02-29 11:06 pm-------1031.6- 3.0 5.9----
2024-02-29 11:00 pm-------1031.6 +1.8 3.0 5.9----
2024-02-29 10:54 pm-------1031.7- 3.1 5.9----
2024-02-29 10:48 pm-------1031.6- 3.1 5.9----
2024-02-29 10:42 pm-------1031.5- 3.1 5.9----
2024-02-29 10:36 pm-------1031.5- 3.2 5.9----
2024-02-29 10:30 pm-------1031.5- 3.2 5.9----
2024-02-29 10:24 pm-------1031.5- 3.2 5.9----
2024-02-29 10:18 pm-------1031.6- 3.3 5.9----
2024-02-29 10:12 pm-------1031.5- 3.3 5.9----
2024-02-29 10:06 pm-------1031.3- 3.3 6.0----
2024-02-29 10:00 pm-------1031.3 +2.5 3.4 6.0----
2024-02-29 09:54 pm-------1031.3- 3.4 6.0----
2024-02-29 09:48 pm-------1031.3- 3.4 6.0----
2024-02-29 09:42 pm-------1031.3- 3.4 6.0----
2024-02-29 09:36 pm-------1031.2- 3.5 6.0----
2024-02-29 09:30 pm-------1031.0- 3.6 6.0----
2024-02-29 09:24 pm-------1030.8- 3.6 6.0----
2024-02-29 09:18 pm-------1030.7- 3.6 6.0----
2024-02-29 09:12 pm-------1030.7- 3.7 6.0----
2024-02-29 09:06 pm-------1030.7- 3.7 6.0----
2024-02-29 09:00 pm-------1030.6 +2.7 3.8 6.0----
2024-02-29 08:54 pm-------1030.4- 3.8 6.0----
2024-02-29 08:48 pm-------1030.3- 3.9 6.0----
2024-02-29 08:42 pm-------1030.2- 3.9 6.0----
2024-02-29 08:36 pm-------1030.1- 4.0 6.0----
2024-02-29 08:30 pm-------1030.0- 4.0 6.0----
2024-02-29 08:24 pm-------1029.9- 4.1 6.0----
2024-02-29 08:18 pm-------1029.9- 4.1 6.0----
2024-02-29 08:12 pm-------1029.9- 4.2 6.0----
2024-02-29 08:06 pm-------1029.9- 4.2 6.1----
2024-02-29 08:00 pm-------1029.8 +2.7 4.3 6.1----
2024-02-29 07:54 pm-------1029.7- 4.3 6.1----
2024-02-29 07:48 pm-------1029.7- 4.4 6.1----
2024-02-29 07:42 pm-------1029.6- 4.5 6.1----
2024-02-29 07:36 pm-------1029.5- 4.5 6.1----
2024-02-29 07:30 pm-------1029.4- 4.6 6.1----
2024-02-29 07:24 pm-------1029.3- 4.6 6.1----
2024-02-29 07:18 pm-------1029.2- 4.7 6.1----
2024-02-29 07:12 pm-------1029.0- 4.7 6.1----
2024-02-29 07:06 pm-------1028.9- 4.8 6.1----
2024-02-29 07:00 pm-------1028.8 +2.2 4.8 6.1----
2024-02-29 06:54 pm-------1028.7- 4.9 6.1----
2024-02-29 06:48 pm-------1028.6- 4.9 6.1----
2024-02-29 06:42 pm-------1028.5- 5.0 6.1----
2024-02-29 06:36 pm-------1028.5- 5.0 6.1----
2024-02-29 05:48 pm-------1027.7- 5.3 6.1----
2024-02-29 05:42 pm-------1027.6- 5.4 6.1----
2024-02-29 05:36 pm-------1027.5- 5.5 6.1----
2024-02-29 05:30 pm-------1027.4- 5.5 6.1----
2024-02-29 05:24 pm-------1027.3- 5.6 6.1----
2024-02-29 05:18 pm-------1027.3- 5.6 6.1----
2024-02-29 05:12 pm-------1027.2- 5.7 6.1----
2024-02-29 05:06 pm-------1027.1- 5.7 6.1----
2024-02-29 05:00 pm-------1027.1 +0.7 5.9 6.1----
2024-02-29 04:54 pm-------1026.9- 5.9 6.1----
2024-02-29 04:48 pm-------1026.9- 5.8 6.1----
2024-02-29 04:42 pm-------1026.9- 5.8 6.1----
2024-02-29 04:36 pm-------1026.8- 5.7 6.1----
2024-02-29 04:30 pm-------1026.8- 5.9 6.0----
2024-02-29 04:24 pm-------1026.8- 5.9 6.0----
2024-02-29 04:18 pm-------1026.7- 5.9 6.0----
2024-02-29 04:12 pm-------1026.6- 6.1 6.0----
2024-02-29 04:06 pm-------1026.6- 5.8 6.0----
2024-02-29 04:00 pm-------1026.6 +0.0 5.8 6.0----
2024-02-29 03:54 pm-------1026.6- 5.9 6.0----
2024-02-29 03:48 pm-------1026.5- 5.8 6.0----
2024-02-29 03:42 pm-------1026.5- 5.6 6.0----
2024-02-29 03:36 pm-------1026.5- 5.5 6.0----
2024-02-29 03:30 pm-------1026.5- 5.7 6.0----
2024-02-29 03:24 pm-------1026.5- 5.8 6.0----
2024-02-29 03:18 pm-------1026.4- 5.9 6.0----
2024-02-29 03:12 pm-------1026.3- 5.7 6.0----
2024-02-29 03:06 pm-------1026.5- 5.8 5.9----
2024-02-29 03:00 pm-------1026.5 +0.0 5.6 5.9----
2024-02-29 02:54 pm-------1026.4- 5.6 5.9----
2024-02-29 02:48 pm-------1026.4- 5.6 5.9----
2024-02-29 02:42 pm-------1026.3- 5.7 5.9----
2024-02-29 02:36 pm-------1026.3- 5.7 5.9----
2024-02-29 02:30 pm-------1026.3- 5.6 5.9----
2024-02-29 02:24 pm-------1026.1- 5.4 5.9----
2024-02-29 02:18 pm-------1026.3- 5.3 5.9----
2024-02-29 02:12 pm-------1026.4- 5.1 5.9----
2024-02-29 02:06 pm-------1026.4- 5.1 5.8----
2024-02-29 02:00 pm-------1026.4 -0.6 5.2 5.8----
2024-02-29 01:54 pm-------1026.4- 5.0 5.8----
2024-02-29 01:48 pm-------1026.4- 4.9 5.8----
2024-02-29 01:42 pm-------1026.4- 4.9 5.8----
2024-02-29 01:36 pm-------1026.5- 4.7 5.8----
2024-02-29 01:30 pm-------1026.4- 4.9 5.8----
2024-02-29 01:24 pm-------1026.3- 5.0 5.8----
2024-02-29 01:18 pm-------1026.4- 5.2 5.8----
2024-02-29 01:12 pm-------1026.5- 5.0 5.8----
2024-02-29 01:06 pm-------1026.5- 4.8 5.8----
2024-02-29 01:00 pm-------1026.5 -0.5 4.4 5.8----
2024-02-29 12:54 pm-------1026.6- 4.6 5.7----